Regional Weather Roundup
Issued by NWS

Home | Current Version | Previous Version | Graphics & Text | Print | Product List | Glossary On
Versions: 1 2 3 4 5 6 7 8 9 10 11 12 13 14 15 16 17 18 19 20 21 22 23 24 25 26 27 28 29 30 31 32 33 34 35 36 37 38 39 40 41 42 43 44 45 46 47 48 49 50
000
ASUS43 KBIS 020120
RWRND

NORTH DAKOTA REGIONAL WEATHER ROUNDUP
NATIONAL WEATHER SERVICE BISMARCK ND
800 PM CDT FRI AUG 01 2014

NOTE: "FAIR" INDICATES FEW OR NO CLOUDS BELOW 12,000 FEET WITH NO
SIGNIFICANT WEATHER AND/OR OBSTRUCTIONS TO VISIBILITY.


NDZ001>003-009>011-017-020200-
NORTHWEST NORTH DAKOTA

CITY           SKY/WX    TMP DP  RH WIND       PRES   REMARKS
WILLISTON      SUNNY     83  54  36 SE7       30.05F
MINOT          MOSUNNY   77  63  61 NE5       30.05F
MINOT AFB      MOSUNNY   79  61  54 SE5       30.05F
$$

NDZ018>021-031>035-040>046-020200-
SOUTHWEST NORTH DAKOTA

CITY           SKY/WX    TMP DP  RH WIND       PRES   REMARKS
BISMARCK       TSTM      65  61  87 SE25G43   30.05S VSB 3/4
DICKINSON      SUNNY     79  59  50 NE13      30.05F
GARRISON         N/A     79  61  53 NE3       30.05F
HETTINGER ARPT SUNNY     83  59  44 NE8       30.03F
$$

NDZ004>008-012>016-024-026-027-054-020200-
NORTHEAST NORTH DAKOTA

CITY           SKY/WX    TMP DP  RH WIND       PRES   REMARKS
GRAND FORKS    PTCLDY    79  59  50 E3        30.05S
GRND FRKS AFB  PTCLDY    77  64  62 SE5       30.06F
DEVILS LAKE    MOSUNNY   75  59  57 SE7       30.05F
$$

NDZ022-023-025-028>030-036>039-047>053-020200-
SOUTHEAST NORTH DAKOTA

CITY           SKY/WX    TMP DP  RH WIND       PRES   REMARKS
FARGO          PTCLDY    77  58  51 N5        30.06R
JAMESTOWN      MOCLDY    76  61  59 E9        30.05F
$$



USA.gov is the U.S. government's official web portal to all federal, state and local government web resources and services.